ATLAS 5 CENTAUR DEB, 49359

Orbit data source: Space-Track

ATLAS 5 CENTAUR DEB, 49359 is space debris in HEO originally from a launch on Wed, 17 Oct 2018 UTC launched from the Air Force Eastern Test Range (AFETR). Debris objects in space refer to the collection of defunct objects orbiting the Earth. Examples of debris include non-operational satellites, rocket bodies, and fragments generated from explosions, collisions, or faulty payload assembly.

Loading next visibility...
Identifier
49359, 2018-079FL
Orbit
HEO
Country
Flag of USUS
Related business
Flag of USUnited Launch Alliance/Lockheed Martin (US)
Manufacturer
ULA Decatur
Mission
Spacecraft
Bus & Motor
Unknown
Mass
Unknown
Launch date (UTC)
2018-10-17 (8 years ago)
Launch vehicle
Unknown
Launch site
Air Force Eastern Test Range (AFETR)
Object type
Payload
Rocket body
Debris
Shape & HBR
Unknown shape, 1.1 m
Radar Cross Section
RCS unknown

Expand to show TLE details & history
Last TLE update: 2 days ago

TLE from 2 days ago
0 ATLAS 5 CENTAUR DEB
1 49359U 18079FL  26126.44158391 -.00000144  00000-0  00000-0 0  9997
2 49359  13.2859  25.9350 4711222 338.4187   7.0705  1.87007885 32005
Epoch: 2026-05-06T10:35Z
TLE epoch observation values (Epoch: 2026-05-06T10:35:52.849Z)
Latitude
-0.00005°
Longitude
2.63012°
Altitude
8,672.985 km
Speed
6.216 km/s
True Right ascension
01h 43m 36s
True Declination
0° 00' 00"
Sunlit
Object was in daylight at epoch
Visualization orbit readout
Latitude
Unknown
Longitude
Unknown
Altitude
Unknown
Speed
Unknown
Apparent Right ascension
Unknown
Apparent Declination
Unknown
Sunlit
N/A
Visualization observer readout
Local Sidereal Time
11:43:22
Azimuth
Unknown
Elevation
Unknown
Doppler factor
Unknown
Orbital elements
Apogee altitude
34,564.648 km
Perigee altitude
8,341.055 km
Semi-major axis
27,830.989 km
Eccentricity
0.47112
Inclination
13.2859°
RAAN
25.935°
Arg. of periapsis
338.4187°
True anomaly
21.94815°
Mean anomaly
7.0705°
Eccentric anomaly
13.26363°
Mean motion
0.46747 °/min
Orbital period
770.11 mins
BSTAR
0
Loading maneuver chart data...
Computing Atmospheric mass density...

Documentation

Showing up to 5 results
|